114P/Wiseman-Skiff (2020)

Japanese version
Home page
Updated on November 4, 2020

---------------------------------------------------------------------

* Profile

* Pictures

* Orbital Elements

Epoch 2019 Dec. 27.0 TT = JDT 2458844.5
T 2020 Jan. 14.09596 TT                                 MPC
q   1.5794023            (2000.0)            P               Q
n   0.14751822     Peri.  172.81587     +0.10038383     -0.94427309
a   3.5473628      Node   271.05967     +0.89654152     +0.22247228
e   0.5547672      Incl.   18.27248     +0.43143527     -0.24259928
P   6.68
From 408 observations 1987 Jan. 19-2013 Feb. 10, mean residual 0".8.
     Nongravitational parameters A1 = +0.23, A2 = +0.0024.

* Finding Charts

* Magnitudes Graph

        m1 = 11.0 + 5 log d + 20.0 log r

---------------------------------------------------------------------

The orbital elements are published on M.P.E.C. 2013-D50.
The charts are made with StellaNavigator Ver.10 (AstroArts).
The magnitudes graphs are made with Comet for Windows.

---------------------------------------------------------------------

Copyright(C) Seiichi Yoshida (comet@aerith.net). All rights reserved.